TimeCDT,TemperatureF,Dew PointF,Humidity,Sea Level PressureIn,VisibilityMPH,Wind Direction,Wind SpeedMPH,Gust SpeedMPH,PrecipitationIn,Events,Conditions,WindDirDegrees,DateUTC
12:14 AM,57.2,57.2,100,29.91,4.0,North,6.9,-,N/A,,Overcast,360,2013-10-04 05:14:00
12:34 AM,57.2,57.2,100,29.91,3.0,North,8.1,-,N/A,,Overcast,360,2013-10-04 05:34:00
12:54 AM,57.2,57.2,100,29.91,2.5,North,6.9,-,N/A,,Overcast,10,2013-10-04 05:54:00
1:14 AM,55.4,55.4,100,29.91,2.0,North,9.2,-,N/A,,Overcast,10,2013-10-04 06:14:00
1:34 AM,55.4,55.4,100,29.90,2.0,North,9.2,-,N/A,,Overcast,360,2013-10-04 06:34:00
1:54 AM,55.4,55.4,100,29.92,3.0,North,6.9,-,N/A,,Overcast,10,2013-10-04 06:54:00
2:11 AM,55.4,55.4,100,29.92,4.0,North,9.2,-,N/A,,Overcast,10,2013-10-04 07:11:00
2:21 AM,55.4,55.4,100,29.91,3.0,North,9.2,-,N/A,,Overcast,0,2013-10-04 07:21:00
3:01 AM,55.4,55.4,100,29.92,3.0,North,9.2,-,N/A,,Overcast,10,2013-10-04 08:01:00
3:14 AM,55.4,55.4,100,29.93,4.0,North,6.9,-,N/A,,Overcast,10,2013-10-04 08:14:00
3:29 AM,55.4,55.4,100,29.93,4.0,North,9.2,-,N/A,,Overcast,10,2013-10-04 08:29:00
3:41 AM,55.4,55.4,100,29.93,3.0,North,8.1,-,N/A,,Overcast,0,2013-10-04 08:41:00
4:01 AM,55.4,55.4,100,29.92,2.5,North,9.2,-,N/A,,Overcast,360,2013-10-04 09:01:00
4:24 AM,55.4,55.4,100,29.92,1.8,NNE,6.9,-,N/A,,Overcast,20,2013-10-04 09:24:00
4:41 AM,55.4,55.4,100,29.91,1.2,North,9.2,-,N/A,,Overcast,10,2013-10-04 09:41:00
5:01 AM,55.4,55.4,100,29.93,1.2,NE,4.6,-,N/A,,Overcast,50,2013-10-04 10:01:00
5:21 AM,55.4,55.4,100,29.93,1.0,NNE,8.1,-,N/A,,Overcast,30,2013-10-04 10:21:00
6:03 AM,55.4,55.4,100,29.94,1.2,North,6.9,-,N/A,,Overcast,10,2013-10-04 11:03:00
6:31 AM,55.4,55.4,100,29.95,1.8,NNE,4.6,-,N/A,,Overcast,20,2013-10-04 11:31:00
6:46 AM,55.4,55.4,100,29.95,1.5,ENE,3.5,-,N/A,,Overcast,70,2013-10-04 11:46:00
7:01 AM,55.4,55.4,100,29.94,1.8,NE,3.5,-,N/A,,Overcast,40,2013-10-04 12:01:00
7:21 AM,55.4,55.4,100,29.93,1.8,NNE,8.1,-,N/A,,Overcast,30,2013-10-04 12:21:00
7:53 AM,57.2,57.2,100,29.92,2.0,NNE,8.1,-,N/A,,Overcast,30,2013-10-04 12:53:00
8:08 AM,57.2,57.2,100,29.93,1.5,NE,8.1,-,N/A,,Overcast,40,2013-10-04 13:08:00
8:17 AM,57.2,57.2,100,29.92,1.0,NE,11.5,-,N/A,,Overcast,40,2013-10-04 13:17:00
8:34 AM,55.4,55.4,100,29.91,1.5,NE,15.0,18.4,N/A,,Overcast,40,2013-10-04 13:34:00
8:54 AM,55.4,55.4,100,29.92,1.2,NNE,9.2,17.3,N/A,,Overcast,30,2013-10-04 13:54:00
9:14 AM,55.4,55.4,100,29.92,2.5,NE,12.7,17.3,N/A,,Overcast,50,2013-10-04 14:14:00
9:34 AM,55.4,55.4,100,29.92,4.0,NE,10.4,17.3,N/A,,Overcast,40,2013-10-04 14:34:00
9:54 AM,55.4,55.4,100,29.93,5.0,NE,11.5,-,N/A,,Overcast,50,2013-10-04 14:54:00
10:14 AM,55.4,55.4,100,29.94,7.0,NE,9.2,-,N/A,,Overcast,50,2013-10-04 15:14:00
10:34 AM,55.4,55.4,100,29.94,7.0,NE,10.4,-,N/A,,Overcast,40,2013-10-04 15:34:00
10:54 AM,55.4,55.4,100,29.95,7.0,NE,11.5,-,N/A,,Overcast,50,2013-10-04 15:54:00
11:14 AM,55.4,55.4,100,29.95,7.0,NE,10.4,-,N/A,,Overcast,40,2013-10-04 16:14:00
11:34 AM,55.4,55.4,100,29.95,7.0,NE,9.2,17.3,N/A,,Overcast,40,2013-10-04 16:34:00
11:54 AM,55.4,55.4,100,29.95,5.0,NE,12.7,-,N/A,,Overcast,50,2013-10-04 16:54:00
12:14 PM,55.4,55.4,100,29.96,5.0,ENE,10.4,-,N/A,,Overcast,70,2013-10-04 17:14:00
12:34 PM,55.4,55.4,100,29.96,2.5,NE,9.2,-,N/A,,Overcast,50,2013-10-04 17:34:00
12:54 PM,57.2,57.2,100,29.96,2.0,ENE,11.5,-,N/A,,Overcast,60,2013-10-04 17:54:00
1:14 PM,57.2,57.2,100,29.94,3.0,NE,10.4,-,N/A,,Overcast,40,2013-10-04 18:14:00
1:34 PM,57.2,57.2,100,29.93,5.0,NE,11.5,17.3,N/A,,Overcast,50,2013-10-04 18:34:00
1:54 PM,57.2,57.2,100,29.92,5.0,ENE,13.8,19.6,N/A,,Overcast,70,2013-10-04 18:54:00
2:14 PM,57.2,57.2,100,29.89,5.0,NE,11.5,-,N/A,,Overcast,40,2013-10-04 19:14:00
2:34 PM,57.2,57.2,100,29.90,4.0,ENE,9.2,20.7,N/A,,Overcast,60,2013-10-04 19:34:00
2:54 PM,57.2,57.2,100,29.89,4.0,ENE,13.8,17.3,N/A,,Overcast,60,2013-10-04 19:54:00
3:14 PM,57.2,57.2,100,29.90,3.0,ENE,9.2,20.7,N/A,,Overcast,70,2013-10-04 20:14:00
3:34 PM,57.2,57.2,100,29.92,3.0,East,11.5,-,N/A,,Overcast,80,2013-10-04 20:34:00
3:54 PM,57.2,57.2,100,29.91,3.0,ENE,11.5,17.3,N/A,,Overcast,70,2013-10-04 20:54:00
4:14 PM,57.2,57.2,100,29.90,4.0,NE,8.1,-,N/A,,Overcast,50,2013-10-04 21:14:00
4:34 PM,57.2,57.2,100,29.90,4.0,NE,11.5,-,N/A,,Overcast,40,2013-10-04 21:34:00
4:54 PM,57.2,57.2,100,29.89,5.0,NE,9.2,16.1,N/A,,Overcast,40,2013-10-04 21:54:00
5:14 PM,57.2,57.2,100,29.88,4.0,NE,11.5,18.4,N/A,,Overcast,50,2013-10-04 22:14:00
5:33 PM,57.2,57.2,100,29.87,4.0,NE,11.5,19.6,N/A,,Overcast,40,2013-10-04 22:33:00
5:54 PM,57.2,57.2,100,29.88,4.0,NE,11.5,16.1,N/A,,Overcast,50,2013-10-04 22:54:00
6:14 PM,57.2,57.2,100,29.88,4.0,NE,10.4,18.4,N/A,,Overcast,50,2013-10-04 23:14:00
6:33 PM,57.2,57.2,100,29.88,5.0,NE,8.1,16.1,N/A,,Overcast,40,2013-10-04 23:33:00
6:54 PM,57.2,57.2,100,29.88,5.0,NE,6.9,-,N/A,,Overcast,40,2013-10-04 23:54:00
7:14 PM,57.2,57.2,100,29.90,2.5,ENE,9.2,-,N/A,,Overcast,70,2013-10-05 00:14:00
7:33 PM,57.2,57.2,100,29.90,2.0,ENE,9.2,-,N/A,Thunderstorm,Overcast,60,2013-10-05 00:33:00
7:54 PM,57.2,57.2,100,29.88,2.5,NE,11.5,-,N/A,Rain,Light Rain,40,2013-10-05 00:54:00
8:14 PM,57.2,57.2,100,29.87,2.5,ENE,12.7,18.4,N/A,Thunderstorm,Overcast,60,2013-10-05 01:14:00
8:34 PM,57.2,57.2,100,29.86,3.0,NE,9.2,16.1,N/A,Thunderstorm,Overcast,50,2013-10-05 01:34:00
8:54 PM,57.2,57.2,100,29.85,5.0,ENE,10.4,20.7,0.17,Rain-Thunderstorm,Rain,70,2013-10-05 01:54:00
9:14 PM,57.2,57.2,100,29.83,7.0,ENE,12.7,-,N/A,,Overcast,70,2013-10-05 02:14:00
9:34 PM,57.2,57.2,100,29.86,7.0,ENE,11.5,18.4,0.01,,Overcast,60,2013-10-05 02:34:00
9:53 PM,57.2,57.2,100,29.85,7.0,ENE,12.7,18.4,0.01,,Overcast,70,2013-10-05 02:53:00
10:14 PM,57.2,57.2,100,29.82,7.0,ENE,15.0,20.7,N/A,Rain-Thunderstorm,Light Thunderstorms and Rain,60,2013-10-05 03:14:00
10:33 PM,57.2,57.2,100,29.83,5.0,ENE,12.7,20.7,N/A,Rain-Thunderstorm,Light Thunderstorms and Rain,70,2013-10-05 03:33:00
10:54 PM,57.2,57.2,100,29.82,5.0,ENE,12.7,19.6,0.02,Rain-Thunderstorm,Light Thunderstorms and Rain,60,2013-10-05 03:54:00
11:13 PM,57.2,57.2,100,29.85,5.0,NE,3.5,21.9,0.08,Rain-Thunderstorm,Thunderstorms and Rain,50,2013-10-05 04:13:00
11:34 PM,57.2,57.2,100,29.93,2.5,West,6.9,-,0.44,Rain-Thunderstorm,Heavy Thunderstorms and Rain,260,2013-10-05 04:34:00
11:54 PM,57.2,57.2,100,29.84,10.0,NE,8.1,-,0.78,Rain-Thunderstorm,Thunderstorms and Rain,40,2013-10-05 04:54:00